COSMOS 2251 DEB, 34276

Orbit data source: Space-Track

COSMOS 2251 DEB, 34276 is space debris in LEO originally from a launch on Wed, 16 Jun 1993 UTC launched from the Plesetsk Missile And Space Complex (PKMTR). The debris from Iridium 33, an American commercial communications satellite, has been tracked extensively since its accidental collision with the defunct Russian satellite Cosmos 2251 in 2009. This event, occurring at high speed in low Earth orbit (LEO), generated thousands of pieces of space debris, significantly increasing the risk of further collisions. The Iridium 33 debris cloud has impacted space traffic management and orbital debris mitigation strategies, making it a subject of ongoing study in space situational awareness.

Loading next visibility...
Identifier
34276, 1993-036LW
Orbit
LEO
Country
Flag of CISCIS
Related business
Manufacturer
Unknown
Mission
Spacecraft
Bus & Motor
Unknown
Mass
Unknown
Launch date (UTC)
1993-06-16 (33 years ago)
Launch vehicle
Unknown
Launch site
Plesetsk Missile And Space Complex (PKMTR)
Object type
Payload
Rocket body
Debris
Shape & HBR
Unknown shape, 0.1 m
Radar Cross Section
Small (<0.1 m²)

Expand to show TLE details & history
Last TLE update: 10 hours ago

TLE from 10 hours ago
0 COSMOS 2251 DEB
1 34276U 93036LW  25354.96133163  .00002084  00000-0  46553-3 0  9994
2 34276  74.0237  69.6895 0022311 215.8265 321.1235 14.57277235887124
Epoch: 2025-12-20T23:04Z
TLE epoch observation values (Epoch: 2025-12-20T23:04:19.052Z)
Latitude
2.99342°
Longitude
172.97629°
Altitude
691.991 km
Speed
7.517 km/s
True Right ascension
16h 35m 20s
True Declination
2° 58' 31"
Sunlit
Object was in daylight at epoch
Visualization orbit readout
Latitude
Unknown
Longitude
Unknown
Altitude
Unknown
Speed
Unknown
Apparent Right ascension
Unknown
Apparent Declination
Unknown
Sunlit
N/A
Visualization observer readout
Local Sidereal Time
07:37:19
Azimuth
Unknown
Elevation
Unknown
Doppler factor
Unknown
Orbital elements
Apogee altitude
715.372 km
Perigee altitude
683.79 km
Semi-major axis
7,077.718 km
Eccentricity
0.00223
Inclination
74.0237°
RAAN
69.6895°
Arg. of periapsis
215.8265°
True anomaly
320.96268°
Mean anomaly
321.1235°
Eccentric anomaly
321.04313°
Mean motion
3.64505 °/min
Orbital period
98.76 mins
BSTAR
0.00046553
Loading maneuver chart data...
Computing Atmospheric mass density...

Documentation

Showing up to 5 results
|